www.pogodaiklimat.ru

Погода и климат >> Архив погоды >> Норвегия >> Vaeroy Heliport


ПОГОДА в Vaeroy Heliport

  • Прогноз погоды в Vaeroy Heliport
  • Монитор погоды в Vaeroy Heliport
  • Климат города

АРХИВ ПОГОДЫ в Vaeroy Heliport

Время (UTC), дата Ветер
(напр.,м/с)
 
Видим.   Явления Облачность Т
(С)
Тd
(С)
f
(%)
Тe
(С)
Тes
(С)
Комфортность P
(гПа)
Po
(гПа)
Тmin
(С)
Tmax
(С)
R
(мм)
R24
(мм)
S
(см)
02 14.08 З 8
{16}
н/о н/о +10.7 +6.3 74 +7 +7 1002.2 1001.7
01 14.08 З 9
{16}
н/о н/о +10.5 +6.6 77 +7 +7 1001.4 1001.0
03 14.08 З 8
{15}
н/о н/о +10.6 +5.6 71 +7 +7 1002.8 1002.3
04 14.08 З 5
{15}
н/о н/о +10.3 +6.2 76 +7 +7 1003.6 1003.1
05 14.08 З 8
{14}
н/о н/о +9.9 +6.6 80 +6 +6 1004.4 1004.0
06 14.08 З 7 н/о н/о +10.4 +7.0 79 +7 +7 1005.1 1004.6
08 14.08 З 7
{13}
н/о н/о +11.0 +5.8 70 +8 +8 1007.1 1006.6
07 14.08 З 8
{13}
н/о н/о +10.2 +6.4 77 +6 +6 1006.1 1005.6
09 14.08 З 9 н/о н/о +11.2 +5.1 66 +8 +8 1008.0 1007.5
10 14.08 З 6
{13}
н/о н/о +11.6 +5.1 64 +9 +9 1008.9 1008.4
11 14.08 З 7
{13}
н/о н/о +12.4 +4.7 59 +10 +10 1010.2 1009.7
12 14.08 ЮЗ 8
{19}
н/о н/о +11.9 +4.3 60 +9 +9 1010.9 1010.4
14 14.08 З 7
{20}
н/о н/о +12.4 +5.4 62 +10 +10 1012.5 1012.0
13 14.08 ЮЗ 11
{19}
н/о н/о +12.1 +5.5 64 +8 +8 1011.7 1011.2
15 14.08 З 6
{15}
н/о н/о +11.0 +6.6 74 +8 +8 1013.3 1012.8
16 14.08 З 8
{14}
н/о н/о +10.3 +6.2 76 +6 +6 1013.6 1013.1
17 14.08 З 7
{13}
н/о н/о +10.2 +6.9 80 +7 +7 1013.9 1013.4
18 14.08 З 6
{20}
н/о н/о +11.5 +6.7 72 +9 +9 1014.5 1014.0 +9.7 +12.7
20 14.08 ЮЗ 7
{14}
н/о н/о +11.5 +6.5 71 +8 +8 1015.4 1014.9
19 14.08 З 6
{13}
н/о н/о +11.5 +6.6 72 +9 +9 1014.9 1014.4
21 14.08 ЮЗ 9
{14}
н/о н/о +11.5 +5.7 68 +8 +8 1015.8 1015.3
22 14.08 З 6
{15}
н/о н/о +11.1 +4.9 66 +8 +8 1016.2 1015.8
23 14.08 З 5
{11}
н/о н/о +11.1 +5.4 68 +9 +9 1016.6 1016.1
00 15.08 З 5
{15}
н/о н/о +11.0 +6.1 72 +8 +8 1016.7 1016.2
02 15.08 З 4
{9}
н/о н/о +11.0 +6.0 71 +9 +9 1016.9 1016.4
01 15.08 З 4
{10}
н/о н/о +11.1 +6.1 71 +9 +9 1016.7 1016.2
03 15.08 З 4
{8}
н/о н/о +10.8 +6.3 74 +8 +8 1017.2 1016.7
04 15.08 З 4
{8}
н/о н/о +11.0 +6.5 74 +9 +9 1017.3 1016.8
05 15.08 З 4
{8}
н/о н/о +11.6 +6.3 70 +10 +10 1017.6 1017.1
06 15.08 З 3
{10}
н/о н/о +12.0 +6.4 69 +11 +11 1017.8 1017.3 +10.8 +12.0
08 15.08 ЮЗ 4
{8}
н/о н/о +12.4 +6.4 67 +11 +11 1018.3 1017.9
07 15.08 ЮЗ 4
{7}
н/о н/о +12.2 +6.4 68 +10 +10 1018.1 1017.6
09 15.08 ЮЗ 5
{7}
н/о н/о +12.5 +6.8 68 +10 +10 1018.5 1018.0
10 15.08 ЮЗ 3
{6}
н/о н/о +13.0 +7.2 68 +12 +12 1018.5 1018.0
11 15.08 Ю 3
{5}
н/о н/о +12.7 +8.4 75 +11 +11 1018.5 1018.0
12 15.08 Ю 3
{8}
н/о н/о +12.8 +8.0 73 +11 +11 1018.7 1018.2
14 15.08 ЮВ 2
{3}
н/о н/о +13.1 +8.5 74 +12 +12 1018.3 1017.8
13 15.08 Ю 3
{4}
н/о н/о +13.4 +8.9 74 +12 +12 1018.6 1018.1
15 15.08 ЮВ 2
{4}
н/о н/о +13.4 +8.4 72 +13 +13 1017.9 1017.4
16 15.08 ЮВ 2
{5}
н/о н/о +12.9 +8.4 74 +12 +12 1017.4 1016.9
17 15.08 В 2
{3}
н/о н/о +12.8 +9.2 79 +12 +12 1017.0 1016.5
18 15.08 В 4
{5}
н/о н/о +12.1 +8.9 81 +10 +10 1016.7 1016.2 +12.0 +13.5
20 15.08 СВ 5
{5}
н/о н/о +11.0 +9.3 89 +8 +8 1015.6 1015.1
19 15.08 В 4
{5}
н/о н/о +11.4 +9.0 85 +9 +9 1016.3 1015.8
21 15.08 СВ 6
{6}
н/о н/о +11.0 +9.3 89 +8 +8 1015.2 1014.7
22 15.08 СВ 7
{8}
н/о н/о +11.1 +9.1 87 +8 +8 1014.5 1014.0
23 15.08 СВ 7
{8}
н/о н/о +11.1 +9.1 87 +8 +8 1014.3 1013.8
00 16.08 С 6
{8}
н/о н/о +11.0 +9.4 90 +8 +8 1013.5 1013.0
02 16.08 СВ 7
{9}
н/о н/о +11.5 +10.0 90 +8 +8 1012.6 1012.1
01 16.08 С 7
{9}
н/о н/о +11.4 +9.9 90 +8 +8 1013.0 1012.5
03 16.08 С 6
{9}
н/о н/о +11.5 +9.9 90 +8 +8 1011.9 1011.4
04 16.08 С 6
{8}
н/о н/о +11.6 +10.0 90 +9 +9 1011.5 1011.1
05 16.08 С 6
{9}
н/о н/о +11.8 +9.9 88 +9 +9 1010.8 1010.4
06 16.08 С 6
{10}
н/о н/о +11.8 +10.0 89 +9 +9 1010.4 1010.0 +11.0 +12.4
08 16.08 СВ 7
{9}
н/о н/о +12.1 +10.0 87 +9 +9 1009.9 1009.5
07 16.08 С 6
{8}
н/о н/о +12.0 +10.0 88 +9 +9 1010.3 1009.8
09 16.08 СВ 6
{9}
н/о н/о +12.2 +10.2 88 +9 +9 1009.7 1009.2
10 16.08 С 3
{7}
н/о н/о +12.1 +10.6 91 +10 +10 1009.6 1009.2
11 16.08 Ю 4
{5}
н/о н/о +12.5 +11.5 94 +10 +10 1009.2 1008.8
12 16.08 Ю 4
{9}
н/о н/о +12.2 +11.5 95 +10 +10 1008.7 1008.2
14 16.08 Ю 4
{5}
н/о н/о +12.1 +11.7 97 +10 +10 1008.1 1007.6
13 16.08 Ю 4
{5}
н/о н/о +12.1 +11.6 97 +10 +10 1008.2 1007.8
15 16.08 З 3
{6}
н/о н/о +12.6 +12.0 96 +11 +11 1008.1 1007.6
16 16.08 З 5
{8}
н/о н/о +12.4 +11.0 91 +10 +10 1008.6 1008.1

 

Местоположение метеостанции Vaeroy Heliport (Норвегия): широта 67.65 долгота 12.72 высота над уровнем моря 4 м.

В архиве по умолчанию представлена погода в Vaeroy Heliport за последнюю неделю. Архивные данные за месяц целиком и за предыдущие месяцы, начиная с января 2011 года, Вы можете получить, выбрав интересующий диапазон дат из раскрывающегося списка и нажав кнопку "Ввод!".

Внимание! Время в таблицах - всемирное. Для получения местного времени необходимо прибавить поправку, которая в Vaeroy Heliport равна 1 ч.

Смотрите также архив погоды в соседних городах и на ближайших метеорологических станциях:

Погода в Rost Flyplass (Норвегия) (30 км)
Погода в Helligvaer II (Норвегия) (57 км)
Погода в Leknes (Норвегия) (68 км)
Погода в Bodo VI (Норвегия) (82 км)
Погода в Reipa (Норвегия) (92 км)
Погода в Skrova Fyr (Норвегия) (98 км)
Погода в Myken (Норвегия) (98 км)
Погода в Svolvaer Lufthavn (Норвегия) (105 км)
Погода в Bo i Vesteralen (Норвегия) (128 км)
Погода в Setsa (Норвегия) (130 км)

Пояснения к столбцам:

Ветер - указаны скорость ветра в м/с - средняя за 10 мин, порывы в срок и между сроками (в фигурных скобках) и направление, откуда дует ветер: С - северный, СВ - северо-восточный, В - восточный, ЮВ - юго-восточный, Ю - южный, ЮЗ - юго-западный, З - западный, СЗ - северо-западный.
Видимость - горизонтальная дальность видимости в метрах или километрах. При видимости от 1 до 10 км при отсутствии осадков обычно наблюдается дымка, при ухудшении видимости до 1 км и менее - туман. В сухую погоду видимость может ухудшаться дымом, пылью или мглою.
Явления - указаны атмосферные явления, наблюдавшиеся в срок или в последний час перед сроком; фигурными скобками обозначены явления, наблюдавшиеся между сроками (за 1-3 часа до срока); квадратными скобками обозначены град или гололедные отложения с указанием их диаметра в мм.
Облачность - указаны через наклонную черту общая и нижняя облачность в баллах и высота нижней границы облаков в метрах; квадратными скобками обозначены формы облаков: Ci - перистые, Cs - перисто-слоистые, Cc - перисто-кучевые, Ac - высококучевые, As - высокослоистые, Sc - слоисто-кучевые, Ns - слоисто-дождевые, Cu - кучевые, Cb - кучево-дождевые. Подробнее классификацию облаков см. в Атласе облаков (PDF).
T - Температура воздуха - температура, измеренная на высоте 2 м над землей.
Td - Температура точки росы - температура, при понижении до которой содержащийся в воздухе водяной пар достигнет насыщения.
f - Относительная влажность воздуха - влажноcть воздуха, измеренная на высоте 2 м над землей.
Te - Эффективная температура - температура, которую ощущает одетый по сезону человек в тени. Характеристика душности погоды. При расчете учитывается влияние влажности воздуха и скорости ветра на теплоощущения человека.
Tes - Эффективная температура на солнце - температура, которую ощущает человек, с поправкой на солнечный нагрев. Характеристика знойности погоды. Зависит от высоты солнца над горизонтом, облачности и скорости ветра. Ночью, в пасмурную погоду, а также при ветре 12 м/с и более поправка равна нулю.
P - Атмосферное давление - приведенное к уровню моря атмосферное давление.
Po - Атмосферное давление - измеренное на уровне метеостанции атмосферное давление.
Tmin - Минимальная температура - минимум температуры воздуха на высоте 2 м над землей.
Tmax - Максимальная температура - максимум температуры воздуха на высоте 2 м над землей.
R - Количество осадков - Количество выпавших осадков за период времени, мм. При наведении курсора мыши на число - период времени, за который выпало указанное количество осадков.
R24 - Количество осадков - Количество выпавших осадков за 24 часа, мм.
S - Снежный покров - Высота снежного покрова, см. При наведении курсора мыши на число - состояние снежного покрова и степень покрытия местности в баллах.